Weather History for Rock Hill, SC

Change the Weather History Date:

Wednesday, February 12, 2014

  Actual Average Record
Temperature  
Mean Temperature 26 °F -  
Max Temperature 28 °F 54 °F 72 °F (1961)
Min Temperature 24 °F 32 °F 14 °F (1955)
Degree Days  
Heating Degree Days 39    
Moisture  
Dew Point 21 °F    
Average Humidity 85    
Maximum Humidity 92    
Minimum Humidity 63    
Precipitation  
Precipitation 0.68 in - - ()
Sea Level Pressure  
Sea Level Pressure 30.13 in    
Wind  
Wind Speed 8 mph (NE)    
Max Wind Speed 14 mph    
Max Gust Speed 23 mph    
Visibility 2 miles    
Events Fog , Rain , Snow    
Averages and records for this station are not official NWS values.
T = Trace of Precipitation, MM = Missing Value Source: NWS Daily Summary

Daily Weather History Graph

Daily Weather History Graph

Search for Another Location

Airport:

Trip Planner

Search our weather history database for the weather conditions in past years. The results will help you decide how hot, cold, wet, or windy it might be!

Date:

Astronomy

Feb. 12, 2014 Rise Set
Actual Time 7:13 AM EST 6:04 PM EST
Civil Twilight 6:47 AM EST 6:30 PM EST
Nautical Twilight 6:17 AM EST 6:59 PM EST
Astronomical Twilight 5:48 AM EST 7:29 PM EST
Moon 4:18 PM EST (2/12) 5:27 AM EST (2/12)
Length of Visible Light 11h 42m
Length of Day
10h 50m
Waxing Gibbous, 95% of the Moon is Illuminated
Feb 12
Waxing Gibbous
Feb 14
Full
Feb 22
Last Quarter
Mar 1
New
Mar 8
First Quarter

Hourly Weather History & Observations

Time (EST) Temp. Windchill Dew Point Humidity Pressure Visibility Wind Dir Wind Speed Gust Speed Precip Events Conditions
12:54 AM 28.9 °F 23.9 °F 26.1 °F 89% 30.36 in 4.0 mi Variable 4.6 mph - N/A   Clear
1:54 AM 28.9 °F 25.2 °F 25.0 °F 85% 30.38 in 5.0 mi Variable 3.5 mph - N/A   Overcast
2:54 AM 28.9 °F 23.9 °F 25.0 °F 85% 30.37 in 5.0 mi ENE 4.6 mph - N/A   Mostly Cloudy
3:54 AM 28.9 °F 22.8 °F 21.9 °F 75% 30.36 in 7.0 mi Variable 5.8 mph - N/A   Overcast
4:54 AM 28.0 °F 21.7 °F 21.0 °F 75% 30.35 in 7.0 mi NE 5.8 mph - N/A   Overcast
5:54 AM 27.0 °F 18.7 °F 19.0 °F 72% 30.35 in 8.0 mi NE 8.1 mph - N/A   Overcast
6:54 AM 27.0 °F 19.5 °F 18.0 °F 69% 30.37 in 9.0 mi Variable 6.9 mph - N/A   Overcast
7:54 AM 27.0 °F 19.5 °F 17.1 °F 66% 30.39 in 8.0 mi NE 6.9 mph - N/A   Overcast
8:54 AM 27.0 °F 21.6 °F 16.0 °F 63% 30.40 in 6.0 mi Variable 4.6 mph - N/A   Haze
9:12 AM 26.1 °F 17.6 °F 17.1 °F 69% 30.36 in 2.0 mi ENE 8.1 mph - 0.00 in Snow Light Snow
9:19 AM 26.1 °F 16.2 °F 17.1 °F 69% 30.37 in 1.0 mi ENE 10.4 mph 17.3 mph 0.00 in Snow Light Snow
9:26 AM 25.0 °F 17.1 °F 18.0 °F 75% 30.37 in 0.8 mi East 6.9 mph 17.3 mph 0.00 in Snow Light Snow
9:36 AM 25.0 °F 17.1 °F 19.0 °F 78% 30.36 in 0.5 mi ENE 6.9 mph - 0.00 in Snow Snow
9:50 AM 24.8 °F 16.9 °F 19.4 °F 80% 30.35 in 0.5 mi Variable 6.9 mph 17.3 mph 0.01 in Fog , Snow Snow
9:54 AM 24.1 °F 16.0 °F 19.9 °F 84% 30.39 in 0.2 mi NE 6.9 mph - 0.01 in Fog , Snow Snow
10:54 AM 24.1 °F 13.7 °F 21.0 °F 88% 30.33 in 0.2 mi NNE 10.4 mph 17.3 mph 0.04 in Fog , Snow Heavy Snow
11:27 AM 24.1 °F 15.2 °F 21.0 °F 88% 30.29 in 0.2 mi NE 8.1 mph 18.4 mph 0.03 in Fog , Snow Snow
11:39 AM 25.0 °F 15.5 °F 21.0 °F 85% 30.28 in 0.8 mi ENE 9.2 mph 18.4 mph 0.04 in Snow Light Snow
11:54 AM 25.0 °F 14.8 °F 21.0 °F 85% 30.32 in 0.5 mi NE 10.4 mph 16.1 mph 0.05 in Fog , Snow Snow
12:09 PM 24.1 °F 14.4 °F 21.0 °F 88% 30.27 in 0.5 mi NE 9.2 mph 18.4 mph 0.01 in Fog , Snow Snow
12:16 PM 24.1 °F 15.2 °F 21.0 °F 88% 30.26 in 0.5 mi NE 8.1 mph 20.7 mph 0.01 in Fog , Snow Snow
12:30 PM 24.1 °F 16.0 °F 21.0 °F 88% 30.25 in 0.2 mi NE 6.9 mph - 0.03 in Fog , Snow Heavy Snow
12:46 PM 24.1 °F 13.7 °F 21.0 °F 88% 30.23 in 0.5 mi NE 10.4 mph - 0.04 in Fog , Snow Snow
12:54 PM 24.1 °F 13.1 °F 21.0 °F 88% 30.27 in 0.5 mi NE 11.5 mph 20.7 mph 0.05 in Fog , Snow Snow
1:00 PM 24.1 °F 16.0 °F 21.0 °F 88% 30.22 in 1.0 mi NE 6.9 mph 20.7 mph 0.00 in Snow Light Snow
1:13 PM 24.1 °F 14.4 °F 21.0 °F 88% 30.20 in 0.5 mi NE 9.2 mph 18.4 mph 0.01 in Fog , Snow Snow
1:20 PM 24.1 °F 13.7 °F 21.0 °F 88% 30.20 in 0.5 mi NE 10.4 mph - 0.01 in Fog , Snow Snow
1:32 PM 24.1 °F 14.4 °F 21.0 °F 88% 30.20 in 0.8 mi NE 9.2 mph 19.6 mph 0.03 in Snow Light Snow
1:41 PM 24.1 °F 14.4 °F 19.9 °F 84% 30.19 in 1.0 mi ENE 9.2 mph 21.9 mph 0.04 in Snow Light Snow
1:52 PM 24.8 °F 15.3 °F 21.2 °F 86% 30.18 in 0.8 mi NE 9.2 mph 16.1 mph 0.05 in Snow Light Snow
1:54 PM 24.1 °F 13.1 °F 21.0 °F 88% 30.22 in 0.8 mi NE 11.5 mph 20.7 mph 0.05 in Snow Light Snow
2:03 PM 24.1 °F 15.2 °F 21.0 °F 88% 30.17 in 0.5 mi NE 8.1 mph 20.7 mph 0.01 in Fog , Snow Snow
2:06 PM 24.1 °F 13.7 °F 21.0 °F 88% 30.16 in 0.5 mi NE 10.4 mph 20.7 mph 0.01 in Fog , Snow Snow
2:13 PM 24.1 °F 13.7 °F 21.0 °F 88% 30.16 in 0.8 mi NE 10.4 mph - 0.01 in Snow Light Snow
2:15 PM 24.1 °F 14.4 °F 21.0 °F 88% 30.15 in 1.0 mi NE 9.2 mph 17.3 mph 0.02 in Snow Light Snow
2:25 PM 24.1 °F 13.1 °F 19.9 °F 84% 30.15 in 2.0 mi NE 11.5 mph 23.0 mph 0.02 in   Overcast
2:33 PM 24.1 °F 13.7 °F 19.9 °F 84% 30.14 in 2.0 mi NE 10.4 mph 23.0 mph 0.03 in   Overcast
2:42 PM 24.1 °F 14.4 °F 19.9 °F 84% 30.13 in 1.8 mi NE 9.2 mph 23.0 mph 0.04 in   Overcast
2:54 PM 24.1 °F 13.7 °F 19.9 °F 84% 30.15 in 1.5 mi NE 10.4 mph 21.9 mph 0.05 in   Overcast
3:54 PM 24.1 °F 13.1 °F 19.9 °F 84% 30.09 in 1.2 mi NNE 11.5 mph 19.6 mph 0.02 in   Overcast
4:54 PM 24.1 °F 12.0 °F 19.9 °F 84% 30.08 in 0.8 mi NNE 13.8 mph 20.7 mph 0.04 in   Overcast
5:20 PM 24.1 °F 12.5 °F 19.9 °F 84% 30.03 in 1.0 mi NNE 12.7 mph - 0.01 in   Overcast
5:28 PM 24.1 °F 13.7 °F 19.9 °F 84% 30.01 in 1.2 mi NNE 10.4 mph 19.6 mph 0.01 in Rain Light Freezing Rain
5:54 PM 24.1 °F 14.4 °F 21.0 °F 88% 30.05 in 1.5 mi NE 9.2 mph 20.7 mph 0.01 in Rain Light Freezing Rain
6:09 PM 24.1 °F 12.5 °F 21.0 °F 88% 30.00 in 1.8 mi NE 12.7 mph 21.9 mph 0.01 in   Overcast
6:19 PM 24.1 °F 13.7 °F 21.0 °F 88% 29.99 in 2.0 mi NE 10.4 mph 18.4 mph 0.01 in   Overcast
6:30 PM 24.1 °F 13.1 °F 21.0 °F 88% 29.99 in 2.5 mi NE 11.5 mph 21.9 mph 0.01 in Rain Light Freezing Rain
6:50 PM 24.8 °F 14.6 °F 21.2 °F 86% 29.97 in 2.0 mi NNE 10.4 mph 16.1 mph 0.01 in Snow Light Snow
6:54 PM 24.1 °F 13.1 °F 21.0 °F 88% 30.02 in 2.0 mi NNE 11.5 mph 16.1 mph 0.01 in Snow Light Snow
7:02 PM 24.1 °F 13.7 °F 21.0 °F 88% 29.98 in 1.8 mi NNE 10.4 mph 19.6 mph 0.01 in Snow Light Snow
7:43 PM 24.1 °F 14.4 °F 21.9 °F 91% 29.97 in 1.5 mi NE 9.2 mph 19.6 mph 0.03 in Rain Light Freezing Rain
7:52 PM 24.8 °F 16.1 °F 21.2 °F 86% 29.96 in 1.5 mi ENE 8.1 mph - 0.04 in Snow Light Snow
7:54 PM 24.1 °F 14.4 °F 21.9 °F 91% 29.99 in 1.5 mi NE 9.2 mph - 0.04 in Snow Light Snow
8:23 PM 25.0 °F 16.3 °F 21.9 °F 88% 29.94 in 2.0 mi NE 8.1 mph 20.7 mph 0.02 in   Overcast
8:43 PM 25.0 °F 15.5 °F 21.9 °F 88% 29.92 in 2.5 mi NE 9.2 mph - 0.02 in Rain Light Freezing Rain
8:54 PM 25.0 °F 16.3 °F 21.9 °F 88% 29.95 in 2.0 mi ENE 8.1 mph 18.4 mph 0.03 in Rain Light Freezing Rain
9:17 PM 25.0 °F 15.5 °F 23.0 °F 92% 29.89 in 1.5 mi NNE 9.2 mph 17.3 mph 0.02 in Rain Light Freezing Rain
9:39 PM 25.0 °F 18.1 °F 23.0 °F 92% 29.87 in 1.5 mi NE 5.8 mph - 0.05 in   Overcast
9:54 PM 26.1 °F 16.8 °F 23.0 °F 88% 29.91 in 1.2 mi NE 9.2 mph 17.3 mph 0.08 in   Overcast
10:00 PM 26.1 °F 18.4 °F 23.0 °F 88% 29.87 in 1.5 mi NE 6.9 mph 19.6 mph 0.01 in   Overcast
10:08 PM 26.1 °F 16.2 °F 24.1 °F 92% 29.86 in 1.2 mi NE 10.4 mph 17.3 mph 0.02 in   Overcast
10:16 PM 26.1 °F 19.4 °F 24.1 °F 92% 29.86 in 1.2 mi NE 5.8 mph 17.3 mph 0.03 in   Overcast
10:23 PM 26.1 °F 18.4 °F 24.1 °F 92% 29.84 in 1.0 mi Variable 6.9 mph - 0.04 in   Overcast
10:54 PM 27.0 °F 18.0 °F 24.1 °F 89% 29.88 in 1.2 mi NNE 9.2 mph - 0.14 in   Overcast
11:10 PM 27.0 °F 16.1 °F 25.0 °F 92% 29.83 in 1.8 mi NNE 12.7 mph - 0.04 in   Overcast
11:17 PM 27.0 °F 18.0 °F 25.0 °F 92% 29.82 in 2.0 mi NE 9.2 mph - 0.04 in   Overcast
11:20 PM 27.0 °F 18.7 °F 25.0 °F 92% 29.82 in 1.8 mi NNE 8.1 mph 17.3 mph 0.05 in Snow Light Snow
11:54 PM 27.0 °F 16.1 °F 25.0 °F 92% 29.84 in 1.8 mi NNE 12.7 mph - 0.06 in Snow Light Snow